TimeCDT,TemperatureF,Dew PointF,Humidity,Sea Level PressureIn,VisibilityMPH,Wind Direction,Wind SpeedMPH,Gust SpeedMPH,PrecipitationIn,Events,Conditions,WindDirDegrees,DateUTC
12:53 AM,19.0,14.0,81,30.27,10.0,NNW,13.8,-,N/A,,Clear,330,2013-03-25 05:53:00
1:34 AM,19.4,14.0,80,30.19,10.0,NNW,13.8,-,0.00,Snow,Light Snow,330,2013-03-25 06:34:00
1:53 AM,18.0,14.0,84,30.28,10.0,NW,12.7,-,0.00,,Mostly Cloudy,320,2013-03-25 06:53:00
2:45 AM,19.4,15.8,86,30.19,10.0,NW,11.5,-,N/A,,Scattered Clouds,320,2013-03-25 07:45:00
2:53 AM,19.9,15.1,81,30.29,10.0,NW,11.5,-,N/A,,Scattered Clouds,310,2013-03-25 07:53:00
3:01 AM,19.4,15.8,86,30.19,10.0,NW,11.5,-,N/A,,Mostly Cloudy,310,2013-03-25 08:01:00
3:14 AM,19.4,15.8,86,30.19,10.0,NW,15.0,-,0.00,Snow,Light Snow,320,2013-03-25 08:14:00
3:36 AM,21.2,17.6,86,30.20,9.0,NNW,19.6,28.8,0.00,,Overcast,330,2013-03-25 08:36:00
3:53 AM,21.0,16.0,81,30.29,10.0,NNW,15.0,24.2,0.00,,Overcast,330,2013-03-25 08:53:00
4:41 AM,19.4,15.8,86,30.20,10.0,NNW,13.8,-,N/A,,Scattered Clouds,330,2013-03-25 09:41:00
4:53 AM,19.9,15.1,81,30.30,10.0,NNW,13.8,20.7,N/A,,Clear,330,2013-03-25 09:53:00
5:53 AM,19.0,15.1,85,30.31,10.0,NW,11.5,-,N/A,,Partly Cloudy,310,2013-03-25 10:53:00
6:53 AM,19.9,16.0,85,30.33,10.0,NW,12.7,21.9,N/A,,Overcast,320,2013-03-25 11:53:00
7:53 AM,21.0,16.0,81,30.35,10.0,NW,15.0,-,0.00,,Mostly Cloudy,320,2013-03-25 12:53:00
8:02 AM,19.4,15.8,86,30.25,10.0,NW,16.1,26.5,N/A,,Mostly Cloudy,320,2013-03-25 13:02:00
8:12 AM,19.4,15.8,86,30.25,10.0,NW,17.3,-,N/A,,Scattered Clouds,320,2013-03-25 13:12:00
8:24 AM,19.4,14.0,80,30.25,10.0,NNW,18.4,23.0,N/A,,Mostly Cloudy,330,2013-03-25 13:24:00
8:31 AM,19.4,14.0,80,30.25,10.0,NW,18.4,-,N/A,,Scattered Clouds,320,2013-03-25 13:31:00
8:53 AM,19.9,14.0,78,30.37,10.0,NNW,17.3,28.8,N/A,,Partly Cloudy,330,2013-03-25 13:53:00
9:53 AM,21.0,10.9,65,30.38,10.0,NNW,23.0,28.8,N/A,,Clear,330,2013-03-25 14:53:00
10:53 AM,21.9,12.0,66,30.39,10.0,NNW,21.9,-,N/A,,Clear,330,2013-03-25 15:53:00
11:53 AM,21.9,12.9,68,30.40,10.0,NNW,20.7,27.6,N/A,,Overcast,330,2013-03-25 16:53:00
12:36 PM,23.0,14.0,68,30.30,10.0,NW,17.3,-,N/A,,Overcast,320,2013-03-25 17:36:00
12:53 PM,24.1,14.0,65,30.40,10.0,NNW,17.3,-,N/A,,Overcast,330,2013-03-25 17:53:00
1:53 PM,24.1,15.1,69,30.41,10.0,NNW,17.3,-,N/A,,Overcast,340,2013-03-25 18:53:00
2:53 PM,26.1,15.1,63,30.39,9.0,NW,17.3,23.0,0.00,,Overcast,320,2013-03-25 19:53:00
3:12 PM,24.8,15.8,69,30.30,9.0,NNW,16.1,-,0.00,Snow,Light Snow,330,2013-03-25 20:12:00
3:53 PM,24.1,15.1,69,30.39,10.0,NNW,15.0,-,0.00,,Overcast,330,2013-03-25 20:53:00
4:14 PM,24.8,15.8,69,30.29,5.0,NNW,12.7,-,0.00,Snow,Light Snow,340,2013-03-25 21:14:00
4:35 PM,24.8,14.0,64,30.29,10.0,NNW,13.8,-,0.00,,Overcast,340,2013-03-25 21:35:00
4:53 PM,25.0,14.0,63,30.39,9.0,NW,13.8,-,0.00,Snow,Light Snow,320,2013-03-25 21:53:00
5:53 PM,26.1,15.1,63,30.39,10.0,NW,11.5,24.2,N/A,,Overcast,320,2013-03-25 22:53:00
6:53 PM,24.1,15.1,69,30.40,10.0,NNW,13.8,-,N/A,,Overcast,340,2013-03-25 23:53:00
7:53 PM,24.1,15.1,69,30.41,10.0,North,9.2,-,N/A,,Overcast,360,2013-03-26 00:53:00
8:53 PM,19.0,12.9,77,30.42,10.0,Calm,Calm,-,N/A,,Clear,0,2013-03-26 01:53:00
9:53 PM,14.0,10.9,88,30.43,10.0,Calm,Calm,-,N/A,,Clear,0,2013-03-26 02:53:00
10:53 PM,10.9,8.1,88,30.44,10.0,Calm,Calm,-,N/A,,Clear,0,2013-03-26 03:53:00
11:53 PM,10.9,8.1,88,30.44,10.0,SW,3.5,-,N/A,,Clear,220,2013-03-26 04:53:00